Location: Shannon
(40.5500°S, 175.4167°E)
Time: 12:33:22
(UTC+00:00)

Cosmos 1633 Rocket - Pass Details

Date: 17 November 2025
Orbit: 601 x 615 km, 82.5° (Epoch: 10 December)

Event Time Altitude Azimuth Distance (km) Brightness Sun altitude
Exits shadow 13:59:06 42° 64° (ENE) 878 3.8 -24.5°
Maximum altitude 13:59:40 45° 87° (E) 843 3.8 -24.5°
Drops below altitude 10° 14:03:53 10° 160° (SSE) 1,991 6.7 -24.1°
Sets 14:06:11 0° 165° (SSE) 2,902 7.7 -23.8°
